TimeAKDT,TemperatureF,Dew PointF,Humidity,Sea Level PressureIn,VisibilityMPH,Wind Direction,Wind SpeedMPH,Gust SpeedMPH,PrecipitationIn,Events,Conditions,WindDirDegrees,DateUTC
12:53 AM,52.0,48.9,89,29.76,10.0,North,4.6,-,N/A,,Overcast,350,2013-08-27 08:53:00
1:53 AM,50.0,48.0,93,29.78,10.0,North,3.5,-,N/A,,Overcast,350,2013-08-27 09:53:00
2:53 AM,51.1,46.9,86,29.78,10.0,NNW,5.8,-,N/A,,Overcast,340,2013-08-27 10:53:00
3:53 AM,53.1,46.0,77,29.78,10.0,NNW,4.6,-,N/A,,Overcast,330,2013-08-27 11:53:00
4:53 AM,52.0,46.0,80,29.78,10.0,NNW,6.9,-,N/A,,Overcast,330,2013-08-27 12:53:00
5:53 AM,53.1,46.0,77,29.77,10.0,NNW,5.8,-,N/A,,Overcast,330,2013-08-27 13:53:00
6:53 AM,53.1,46.0,77,29.78,10.0,NNW,5.8,-,N/A,,Overcast,330,2013-08-27 14:53:00
7:53 AM,53.1,46.0,77,29.78,10.0,North,5.8,-,N/A,,Overcast,350,2013-08-27 15:53:00
8:53 AM,54.0,48.0,80,29.79,10.0,North,4.6,-,N/A,,Overcast,360,2013-08-27 16:53:00
9:53 AM,57.0,48.0,72,29.79,10.0,NNW,5.8,-,N/A,,Overcast,340,2013-08-27 17:53:00
10:53 AM,62.1,48.0,60,29.79,10.0,North,6.9,-,N/A,,Overcast,360,2013-08-27 18:53:00
11:53 AM,57.0,48.9,74,29.78,10.0,SSE,5.8,-,N/A,,Clear,160,2013-08-27 19:53:00
12:53 PM,61.0,48.9,64,29.78,10.0,South,5.8,-,N/A,,Mostly Cloudy,190,2013-08-27 20:53:00
1:53 PM,62.1,48.0,60,29.78,10.0,SSE,8.1,-,N/A,,Clear,160,2013-08-27 21:53:00
2:53 PM,64.0,53.1,67,29.77,10.0,SSE,6.9,-,N/A,,Clear,160,2013-08-27 22:53:00
3:53 PM,63.0,54.0,72,29.77,10.0,SSW,12.7,19.6,N/A,,Overcast,200,2013-08-27 23:53:00
4:53 PM,63.0,53.1,70,29.76,10.0,South,8.1,-,N/A,,Clear,180,2013-08-28 00:53:00
5:53 PM,62.1,55.0,78,29.76,10.0,SSW,11.5,-,N/A,,Clear,200,2013-08-28 01:53:00
6:53 PM,61.0,54.0,78,29.76,10.0,South,16.1,-,N/A,,Clear,190,2013-08-28 02:53:00
7:53 PM,59.0,55.0,87,29.76,10.0,South,11.5,-,N/A,,Scattered Clouds,190,2013-08-28 03:53:00
8:53 PM,57.9,54.0,87,29.76,10.0,South,10.4,-,N/A,,Overcast,190,2013-08-28 04:53:00
9:53 PM,57.0,54.0,89,29.77,10.0,SSE,4.6,-,N/A,,Overcast,160,2013-08-28 05:53:00
10:53 PM,57.0,54.0,89,29.76,10.0,SSE,4.6,-,0.00,,Overcast,160,2013-08-28 06:53:00
11:53 PM,57.0,54.0,89,29.76,10.0,Calm,Calm,-,N/A,,Overcast,0,2013-08-28 07:53:00